TimeAKDT,TemperatureF,Dew PointF,Humidity,Sea Level PressureIn,VisibilityMPH,Wind Direction,Wind SpeedMPH,Gust SpeedMPH,PrecipitationIn,Events,Conditions,WindDirDegrees,DateUTC
12:53 AM,66.9,55.0,66,29.88,4.0,NW,3.5,-,N/A,,Smoke,320,2013-06-30 08:53:00
1:53 AM,63.0,55.0,75,29.88,4.0,NE,4.6,-,N/A,,Smoke,40,2013-06-30 09:53:00
2:53 AM,60.1,54.0,80,29.88,5.0,NE,3.5,-,N/A,,Smoke,40,2013-06-30 10:53:00
3:53 AM,61.0,53.1,75,29.87,5.0,Calm,Calm,-,N/A,,Smoke,0,2013-06-30 11:53:00
4:53 AM,59.0,52.0,78,29.86,5.0,NE,4.6,-,N/A,,Smoke,40,2013-06-30 12:53:00
5:53 AM,60.1,53.1,78,29.86,4.0,NNE,5.8,-,N/A,,Smoke,30,2013-06-30 13:53:00
6:53 AM,64.9,53.1,65,29.84,4.0,NE,4.6,-,N/A,,Smoke,40,2013-06-30 14:53:00
7:53 AM,66.9,53.1,61,29.84,4.0,SSE,3.5,-,N/A,,Smoke,150,2013-06-30 15:53:00
8:53 AM,69.8,53.6,56,29.83,4.0,Calm,Calm,-,N/A,,Smoke,0,2013-06-30 16:53:00
9:53 AM,73.4,53.6,50,29.81,5.0,East,3.5,-,N/A,,Smoke,80,2013-06-30 17:53:00
10:53 AM,75.2,55.4,50,29.79,6.0,Variable,4.6,-,N/A,,Smoke,0,2013-06-30 18:53:00
11:53 AM,78.8,55.4,44,29.77,6.0,Variable,3.5,-,N/A,,Smoke,0,2013-06-30 19:53:00
12:53 PM,81.0,55.0,41,29.74,8.0,Variable,4.6,-,N/A,,Overcast,0,2013-06-30 20:53:00
1:53 PM,82.0,52.0,35,29.71,9.0,Calm,Calm,-,N/A,,Mostly Cloudy,0,2013-06-30 21:53:00
2:53 PM,82.9,52.0,34,29.69,10.0,SW,3.5,-,N/A,,Mostly Cloudy,220,2013-06-30 22:53:00
3:53 PM,82.0,55.0,39,29.67,10.0,WSW,4.6,-,N/A,,Mostly Cloudy,240,2013-06-30 23:53:00
4:53 PM,81.0,55.0,41,29.66,10.0,ESE,5.8,-,N/A,,Mostly Cloudy,120,2013-07-01 00:53:00
5:53 PM,81.0,53.1,38,29.64,10.0,WSW,5.8,-,N/A,,Mostly Cloudy,240,2013-07-01 01:53:00
6:53 PM,80.6,51.8,37,29.63,10.0,WSW,9.2,-,N/A,,Mostly Cloudy,250,2013-07-01 02:53:00
7:53 PM,78.8,51.8,39,29.62,10.0,WSW,10.4,17.3,N/A,,Mostly Cloudy,240,2013-07-01 03:53:00
8:53 PM,73.4,51.8,47,29.62,10.0,WSW,5.8,-,N/A,,Mostly Cloudy,250,2013-07-01 04:53:00
9:53 PM,73.4,48.2,41,29.61,10.0,Variable,6.9,-,N/A,,Mostly Cloudy,0,2013-07-01 05:53:00
10:53 PM,71.6,46.4,41,29.62,10.0,WSW,8.1,20.7,N/A,,Mostly Cloudy,240,2013-07-01 06:53:00
11:53 PM,69.8,44.6,40,29.62,10.0,WSW,11.5,17.3,N/A,,Mostly Cloudy,240,2013-07-01 07:53:00